Time,TemperatureF,DewpointF,PressureIn,WindDirection,WindDirectionDegrees,WindSpeedMPH,WindSpeedGustMPH,Humidity,HourlyPrecipIn,Conditions,Clouds,dailyrainin,SoftwareType,DateUTC
2013-03-15 00:00:00,47.9,39.7,30.26,NNE,13,0.0,0.0,73,0.00,,---,0.00,VWS V14.01,2013-03-15 04:00:00,
2013-03-15 00:05:00,48.2,40.3,30.26,NNE,13,0.0,0.0,74,0.00,,---,0.00,VWS V14.01,2013-03-15 04:05:00,
2013-03-15 00:10:00,48.1,40.4,30.26,NNE,13,0.0,0.0,74,0.00,,---,0.00,VWS V14.01,2013-03-15 04:10:00,
2013-03-15 00:15:00,48.0,40.4,30.26,NNE,13,0.0,0.0,75,0.00,,---,0.00,VWS V14.01,2013-03-15 04:15:00,
2013-03-15 00:20:00,47.4,39.9,30.26,NNE,13,0.0,0.0,75,0.00,,---,0.00,VWS V14.01,2013-03-15 04:20:00,
2013-03-15 00:25:00,47.2,40.0,30.26,NNE,13,0.0,0.0,76,0.00,,---,0.00,VWS V14.01,2013-03-15 04:25:00,
2013-03-15 00:30:00,47.2,40.2,30.26,NNE,13,0.0,0.0,77,0.00,,---,0.00,VWS V14.01,2013-03-15 04:30:00,
2013-03-15 00:35:00,46.9,40.1,30.26,NNE,13,0.0,0.0,77,0.00,,---,0.00,VWS V14.01,2013-03-15 04:35:00,
2013-03-15 00:40:00,47.2,40.4,30.26,NNE,13,0.0,0.0,77,0.00,,---,0.00,VWS V14.01,2013-03-15 04:40:00,
2013-03-15 00:45:00,46.5,39.8,30.26,NNE,13,0.0,0.0,77,0.00,,---,0.00,VWS V14.01,2013-03-15 04:45:00,
2013-03-15 00:50:00,46.1,39.5,30.26,NNE,13,0.0,0.0,78,0.00,,---,0.00,VWS V14.01,2013-03-15 04:50:00,
2013-03-15 00:55:00,45.8,39.4,30.26,NNE,13,0.0,0.0,78,0.00,,---,0.00,VWS V14.01,2013-03-15 04:55:00,
2013-03-15 01:00:00,45.9,39.8,30.26,NNE,13,0.0,0.0,79,0.00,,---,0.00,VWS V14.01,2013-03-15 05:00:00,
2013-03-15 01:05:00,46.0,39.9,30.26,NNE,13,0.0,0.0,79,0.00,,---,0.00,VWS V14.01,2013-03-15 05:05:00,
2013-03-15 01:10:00,46.1,40.0,30.26,NNE,13,0.0,0.0,79,0.00,,---,0.00,VWS V14.01,2013-03-15 05:10:00,
2013-03-15 01:15:00,45.6,39.7,30.26,NNE,13,0.0,0.0,80,0.00,,---,0.00,VWS V14.01,2013-03-15 05:15:00,
2013-03-15 01:20:00,45.9,39.9,30.25,NNE,13,0.0,0.0,79,0.00,,---,0.00,VWS V14.01,2013-03-15 05:20:00,
2013-03-15 01:25:00,45.8,40.0,30.26,NNE,13,0.0,0.0,80,0.00,,---,0.00,VWS V14.01,2013-03-15 05:25:00,
2013-03-15 01:30:00,45.5,39.6,30.26,NNE,13,0.0,0.0,80,0.00,,---,0.00,VWS V14.01,2013-03-15 05:30:00,
2013-03-15 01:35:00,45.0,39.4,30.26,NNE,13,0.0,0.0,81,0.00,,---,0.00,VWS V14.01,2013-03-15 05:35:00,
2013-03-15 01:40:00,44.7,39.2,30.26,NNE,13,0.0,0.0,81,0.00,,---,0.00,VWS V14.01,2013-03-15 05:40:00,
2013-03-15 01:45:00,45.1,39.7,30.26,NNE,13,0.0,0.0,81,0.00,,---,0.00,VWS V14.01,2013-03-15 05:45:00,
2013-03-15 01:50:00,45.0,39.7,30.26,NNE,13,0.0,0.0,81,0.00,,---,0.00,VWS V14.01,2013-03-15 05:50:00,
2013-03-15 01:55:00,44.8,39.6,30.26,NNE,13,0.0,0.0,82,0.00,,---,0.00,VWS V14.01,2013-03-15 05:55:00,
2013-03-15 02:00:00,44.6,39.4,30.26,NNE,13,0.0,0.0,82,0.00,,---,0.00,VWS V14.01,2013-03-15 06:00:00,
2013-03-15 02:05:00,44.3,39.4,30.26,NNE,13,0.0,0.0,83,0.00,,---,0.00,VWS V14.01,2013-03-15 06:05:00,
2013-03-15 02:10:00,44.7,39.8,30.26,NNE,13,0.0,0.0,83,0.00,,---,0.00,VWS V14.01,2013-03-15 06:10:00,
2013-03-15 02:15:00,44.3,39.5,30.26,North,353,1.2,2.4,83,0.00,,---,0.00,VWS V14.01,2013-03-15 06:15:00,
2013-03-15 02:20:00,44.5,39.8,30.26,North,353,0.0,0.6,84,0.00,,---,0.00,VWS V14.01,2013-03-15 06:20:00,
2013-03-15 02:25:00,44.9,40.2,30.25,North,350,0.0,0.0,84,0.00,,---,0.00,VWS V14.01,2013-03-15 06:25:00,
2013-03-15 02:30:00,44.9,40.2,30.25,North,350,0.0,0.0,83,0.00,,---,0.00,VWS V14.01,2013-03-15 06:30:00,
2013-03-15 02:35:00,43.8,39.2,30.25,North,350,0.0,0.0,84,0.00,,---,0.00,VWS V14.01,2013-03-15 06:35:00,
2013-03-15 02:40:00,44.9,40.2,30.25,North,353,0.5,0.7,84,0.00,,---,0.00,VWS V14.01,2013-03-15 06:40:00,
2013-03-15 02:45:00,44.5,39.9,30.25,NNW,346,0.0,0.0,84,0.00,,---,0.00,VWS V14.01,2013-03-15 06:45:00,
2013-03-15 02:50:00,44.3,39.8,30.25,North,353,1.1,1.7,84,0.00,,---,0.00,VWS V14.01,2013-03-15 06:50:00,
2013-03-15 02:55:00,44.7,40.1,30.25,North,353,0.9,0.9,84,0.00,,---,0.00,VWS V14.01,2013-03-15 06:55:00,
2013-03-15 03:00:00,44.7,40.1,30.24,North,349,0.0,0.0,84,0.00,,---,0.00,VWS V14.01,2013-03-15 07:00:00,
2013-03-15 03:05:00,44.8,40.2,30.24,North,352,1.4,3.2,84,0.00,,---,0.00,VWS V14.01,2013-03-15 07:05:00,
2013-03-15 03:10:00,44.8,40.2,30.25,North,352,1.7,2.4,84,0.00,,---,0.00,VWS V14.01,2013-03-15 07:10:00,
2013-03-15 03:15:00,44.7,40.0,30.25,North,350,0.7,1.4,84,0.00,,---,0.00,VWS V14.01,2013-03-15 07:15:00,
2013-03-15 03:20:00,44.8,40.0,30.25,North,352,1.2,1.4,83,0.00,,---,0.00,VWS V14.01,2013-03-15 07:20:00,
2013-03-15 03:25:00,44.9,40.2,30.25,North,352,2.3,2.4,84,0.00,,---,0.00,VWS V14.01,2013-03-15 07:25:00,
2013-03-15 03:30:00,44.8,40.0,30.25,North,350,2.2,3.4,83,0.00,,---,0.00,VWS V14.01,2013-03-15 07:30:00,
2013-03-15 03:35:00,44.7,40.0,30.25,NNW,338,1.1,3.3,83,0.00,,---,0.00,VWS V14.01,2013-03-15 07:35:00,
2013-03-15 03:40:00,44.2,39.6,30.24,NNW,339,2.8,2.8,84,0.00,,---,0.00,VWS V14.01,2013-03-15 07:40:00,
2013-03-15 03:45:00,43.5,39.1,30.24,NW,316,3.2,4.5,84,0.00,,---,0.00,VWS V14.01,2013-03-15 07:45:00,
2013-03-15 03:50:00,44.0,39.5,30.25,NNW,335,3.5,4.1,84,0.00,,---,0.00,VWS V14.01,2013-03-15 07:50:00,
2013-03-15 03:55:00,43.5,39.1,30.25,NW,321,3.0,3.2,84,0.00,,---,0.00,VWS V14.01,2013-03-15 07:55:00,
2013-03-15 04:00:00,43.5,39.2,30.24,NNW,336,2.4,2.4,84,0.00,,---,0.00,VWS V14.01,2013-03-15 08:00:00,
2013-03-15 04:05:00,43.4,39.3,30.24,NW,316,0.0,0.0,85,0.00,,---,0.00,VWS V14.01,2013-03-15 08:05:00,
2013-03-15 04:10:00,43.5,39.2,30.24,NW,316,0.0,0.0,85,0.00,,---,0.00,VWS V14.01,2013-03-15 08:10:00,
2013-03-15 04:15:00,43.1,38.7,30.24,NW,316,0.0,0.0,84,0.00,,---,0.00,VWS V14.01,2013-03-15 08:15:00,
2013-03-15 04:20:00,43.5,39.1,30.24,NW,316,0.0,0.0,84,0.00,,---,0.00,VWS V14.01,2013-03-15 08:20:00,
2013-03-15 04:25:00,42.8,38.4,30.23,NW,316,0.0,0.0,84,0.00,,---,0.00,VWS V14.01,2013-03-15 08:25:00,
2013-03-15 04:30:00,43.5,39.4,30.23,NW,326,0.0,0.0,85,0.00,,---,0.00,VWS V14.01,2013-03-15 08:30:00,
2013-03-15 04:35:00,42.7,38.6,30.23,NW,326,0.0,0.0,85,0.00,,---,0.00,VWS V14.01,2013-03-15 08:35:00,
2013-03-15 04:40:00,43.0,39.0,30.23,NW,326,0.0,0.0,86,0.00,,---,0.00,VWS V14.01,2013-03-15 08:40:00,
2013-03-15 04:45:00,43.8,40.0,30.23,NW,326,0.0,0.0,86,0.00,,---,0.00,VWS V14.01,2013-03-15 08:45:00,
2013-03-15 04:50:00,43.3,39.3,30.24,NW,326,0.0,0.0,86,0.00,,---,0.00,VWS V14.01,2013-03-15 08:50:00,
2013-03-15 04:55:00,43.2,39.4,30.24,NW,326,0.0,0.0,86,0.00,,---,0.00,VWS V14.01,2013-03-15 08:55:00,
2013-03-15 05:00:00,42.4,38.7,30.24,NW,326,0.0,0.0,87,0.00,,---,0.00,VWS V14.01,2013-03-15 09:00:00,
2013-03-15 05:05:00,43.0,39.4,30.23,NW,326,0.0,0.0,87,0.00,,---,0.00,VWS V14.01,2013-03-15 09:05:00,
2013-03-15 05:10:00,42.9,39.2,30.24,NW,326,0.0,0.0,87,0.00,,---,0.00,VWS V14.01,2013-03-15 09:10:00,
2013-03-15 05:15:00,42.6,39.1,30.24,NW,326,0.0,0.0,87,0.00,,---,0.00,VWS V14.01,2013-03-15 09:15:00,
2013-03-15 05:20:00,42.6,39.2,30.24,NW,326,0.0,0.0,88,0.00,,---,0.00,VWS V14.01,2013-03-15 09:20:00,
2013-03-15 05:25:00,41.9,38.5,30.24,NW,326,0.0,0.0,88,0.00,,---,0.00,VWS V14.01,2013-03-15 09:25:00,
2013-03-15 05:30:00,42.2,38.9,30.24,NW,326,0.0,0.0,88,0.00,,---,0.00,VWS V14.01,2013-03-15 09:30:00,
2013-03-15 05:35:00,41.8,38.7,30.24,NW,326,0.0,0.0,89,0.00,,---,0.00,VWS V14.01,2013-03-15 09:35:00,
2013-03-15 05:40:00,41.9,38.8,30.24,NW,326,0.0,0.0,89,0.00,,---,0.00,VWS V14.01,2013-03-15 09:40:00,
2013-03-15 05:45:00,41.4,38.5,30.24,NW,326,0.0,0.0,89,0.00,,---,0.00,VWS V14.01,2013-03-15 09:45:00,
2013-03-15 05:50:00,41.4,38.6,30.24,NW,326,0.0,0.0,90,0.00,,---,0.00,VWS V14.01,2013-03-15 09:50:00,
2013-03-15 05:55:00,41.1,38.5,30.24,NW,326,0.0,0.0,90,0.00,,---,0.00,VWS V14.01,2013-03-15 09:55:00,
2013-03-15 06:00:00,41.6,39.0,30.23,NW,326,0.0,0.0,90,0.00,,---,0.00,VWS V14.01,2013-03-15 10:00:00,
2013-03-15 06:05:00,41.1,38.6,30.23,NW,326,0.0,0.0,91,0.00,,---,0.00,VWS V14.01,2013-03-15 10:05:00,
2013-03-15 06:10:00,40.6,38.2,30.24,NW,326,0.0,0.0,91,0.00,,---,0.00,VWS V14.01,2013-03-15 10:10:00,
2013-03-15 06:15:00,40.7,38.3,30.24,NW,326,0.0,0.0,91,0.00,,---,0.00,VWS V14.01,2013-03-15 10:15:00,
2013-03-15 06:20:00,40.8,38.4,30.25,NW,326,0.0,0.0,91,0.00,,---,0.00,VWS V14.01,2013-03-15 10:20:00,
2013-03-15 06:25:00,40.9,38.6,30.24,NW,326,0.0,0.0,91,0.00,,---,0.00,VWS V14.01,2013-03-15 10:25:00,
2013-03-15 06:30:00,40.4,38.1,30.24,NW,326,0.0,0.0,91,0.00,,---,0.00,VWS V14.01,2013-03-15 10:30:00,
2013-03-15 06:35:00,40.8,38.6,30.25,NW,326,0.0,0.0,92,0.00,,---,0.00,VWS V14.01,2013-03-15 10:35:00,
2013-03-15 06:40:00,40.8,38.6,30.26,NW,326,0.0,0.0,92,0.00,,---,0.00,VWS V14.01,2013-03-15 10:40:00,
2013-03-15 06:45:00,40.8,38.7,30.26,NW,326,0.0,0.0,92,0.00,,---,0.00,VWS V14.01,2013-03-15 10:45:00,
2013-03-15 06:50:00,40.8,38.8,30.26,NW,326,0.0,0.0,92,0.00,,---,0.00,VWS V14.01,2013-03-15 10:50:00,
2013-03-15 06:55:00,40.5,38.6,30.26,NW,326,0.0,0.0,93,0.00,,---,0.00,VWS V14.01,2013-03-15 10:55:00,
2013-03-15 07:00:00,40.5,38.6,30.27,NW,326,0.0,0.0,93,0.00,,---,0.00,VWS V14.01,2013-03-15 11:00:00,
2013-03-15 07:05:00,40.1,38.3,30.27,NW,326,0.0,0.0,93,0.00,,---,0.00,VWS V14.01,2013-03-15 11:05:00,
2013-03-15 07:09:00,40.4,38.7,30.27,NW,326,0.0,0.0,93,0.00,,---,0.00,VWS V14.01,2013-03-15 11:09:00,
2013-03-15 07:14:00,40.3,38.5,30.27,NW,326,0.0,0.0,93,0.00,,---,0.00,VWS V14.01,2013-03-15 11:14:00,
2013-03-15 07:19:00,40.6,38.8,30.27,NW,326,0.0,0.0,93,0.00,,---,0.00,VWS V14.01,2013-03-15 11:19:00,
2013-03-15 07:24:00,41.0,39.3,30.27,NW,326,0.0,0.0,94,0.00,,---,0.00,VWS V14.01,2013-03-15 11:24:00,
2013-03-15 07:29:00,40.4,38.8,30.27,NW,326,0.0,0.0,94,0.00,,---,0.00,VWS V14.01,2013-03-15 11:29:00,
2013-03-15 07:34:00,40.9,39.3,30.27,NW,326,0.0,0.0,94,0.00,,---,0.00,VWS V14.01,2013-03-15 11:34:00,
2013-03-15 07:39:00,41.1,39.6,30.28,NW,326,0.0,0.0,94,0.00,,---,0.00,VWS V14.01,2013-03-15 11:39:00,
2013-03-15 07:44:00,40.5,39.0,30.28,NW,326,0.0,0.0,94,0.00,,---,0.00,VWS V14.01,2013-03-15 11:44:00,
2013-03-15 07:49:00,41.0,39.5,30.28,NW,326,0.0,0.0,94,0.00,,---,0.00,VWS V14.01,2013-03-15 11:49:00,
2013-03-15 07:54:00,40.8,39.3,30.28,NW,326,0.0,0.0,94,0.00,,---,0.00,VWS V14.01,2013-03-15 11:54:00,
2013-03-15 07:59:00,40.8,39.5,30.28,NW,326,0.0,0.0,95,0.00,,---,0.00,VWS V14.01,2013-03-15 11:59:00,
2013-03-15 08:04:00,40.7,39.4,30.28,NW,326,0.0,0.0,95,0.00,,---,0.00,VWS V14.01,2013-03-15 12:04:00,
2013-03-15 08:09:00,41.5,40.3,30.28,NW,326,0.0,0.0,95,0.00,,---,0.00,VWS V14.01,2013-03-15 12:09:00,
2013-03-15 08:14:00,41.7,40.5,30.27,NW,326,0.0,0.0,95,0.00,,---,0.00,VWS V14.01,2013-03-15 12:14:00,
2013-03-15 08:19:00,41.9,40.7,30.27,NW,326,0.0,0.0,95,0.00,,---,0.00,VWS V14.01,2013-03-15 12:19:00,
2013-03-15 08:24:00,42.1,40.9,30.28,NW,326,0.0,0.0,95,0.00,,---,0.00,VWS V14.01,2013-03-15 12:24:00,
2013-03-15 08:29:00,41.7,40.5,30.28,NW,326,0.0,0.0,95,0.00,,---,0.00,VWS V14.01,2013-03-15 12:29:00,
2013-03-15 08:35:00,41.8,40.6,30.28,NW,326,0.0,0.0,95,0.00,,---,0.00,VWS V14.01,2013-03-15 12:35:00,
2013-03-15 08:39:00,42.7,41.6,30.28,NW,326,0.0,0.0,96,0.00,,---,0.00,VWS V14.01,2013-03-15 12:39:00,
2013-03-15 08:44:00,44.4,43.6,30.28,NW,326,0.0,0.0,97,0.00,,---,0.00,VWS V14.01,2013-03-15 12:44:00,
2013-03-15 08:49:00,44.8,44.0,30.29,NW,326,0.0,0.0,97,0.00,,---,0.00,VWS V14.01,2013-03-15 12:49:00,
2013-03-15 08:54:00,46.0,45.0,30.29,NW,326,0.0,0.0,96,0.00,,---,0.00,VWS V14.01,2013-03-15 12:54:00,
2013-03-15 08:59:00,46.7,45.6,30.29,WNW,288,0.6,1.2,96,0.00,,---,0.00,VWS V14.01,2013-03-15 12:59:00,
2013-03-15 09:04:00,47.5,46.2,30.29,West,260,0.7,2.0,95,0.00,,---,0.00,VWS V14.01,2013-03-15 13:04:00,
2013-03-15 09:09:00,48.5,47.1,30.29,West,274,1.7,2.8,95,0.00,,---,0.00,VWS V14.01,2013-03-15 13:09:00,
2013-03-15 09:14:00,49.0,47.1,30.29,WNW,283,3.8,4.1,93,0.00,,---,0.00,VWS V14.01,2013-03-15 13:14:00,
2013-03-15 09:19:00,49.7,47.0,30.29,West,274,2.6,4.5,90,0.00,,---,0.00,VWS V14.01,2013-03-15 13:19:00,
2013-03-15 09:24:00,49.9,46.0,30.29,WSW,256,3.4,4.6,86,0.00,,---,0.00,VWS V14.01,2013-03-15 13:24:00,
2013-03-15 09:29:00,50.9,46.3,30.29,WNW,297,1.1,2.7,84,0.00,,---,0.00,VWS V14.01,2013-03-15 13:29:00,
2013-03-15 09:34:00,51.2,45.3,30.29,NNW,345,2.5,2.5,80,0.00,,---,0.00,VWS V14.01,2013-03-15 13:34:00,
2013-03-15 09:39:00,51.9,44.7,30.29,NNW,329,2.5,4.5,76,0.00,,---,0.00,VWS V14.01,2013-03-15 13:39:00,
2013-03-15 09:44:00,52.3,43.1,30.29,WNW,300,3.9,4.2,71,0.00,,---,0.00,VWS V14.01,2013-03-15 13:44:00,
2013-03-15 09:49:00,52.9,42.7,30.29,North,354,1.8,6.6,68,0.00,,---,0.00,VWS V14.01,2013-03-15 13:49:00,
2013-03-15 09:54:00,53.5,42.4,30.29,NNW,338,4.6,5.0,66,0.00,,---,0.00,VWS V14.01,2013-03-15 13:54:00,
2013-03-15 09:59:00,53.5,40.9,30.29,NNW,346,6.2,6.5,62,0.00,,---,0.00,VWS V14.01,2013-03-15 13:59:00,
2013-03-15 10:04:00,54.1,40.8,30.29,North,6,2.2,3.4,60,0.00,,---,0.00,VWS V14.01,2013-03-15 14:04:00,
2013-03-15 10:09:00,54.7,39.6,30.29,NNW,347,4.3,4.7,56,0.00,,---,0.00,VWS V14.01,2013-03-15 14:09:00,
2013-03-15 10:14:00,55.3,39.7,30.29,NW,314,2.4,6.0,56,0.00,,---,0.00,VWS V14.01,2013-03-15 14:14:00,
2013-03-15 10:19:00,55.6,38.2,30.29,North,1,5.5,7.3,52,0.00,,---,0.00,VWS V14.01,2013-03-15 14:19:00,
2013-03-15 10:24:00,56.6,36.9,30.29,NNE,18,8.9,8.9,48,0.00,,---,0.00,VWS V14.01,2013-03-15 14:24:00,
2013-03-15 10:29:00,57.1,36.7,30.29,North,11,6.9,7.3,46,0.00,,---,0.00,VWS V14.01,2013-03-15 14:29:00,
2013-03-15 10:34:00,57.7,34.7,30.29,NNE,13,7.5,10.4,42,0.00,,---,0.00,VWS V14.01,2013-03-15 14:34:00,
2013-03-15 10:39:00,57.6,34.6,30.29,North,356,7.0,9.4,42,0.00,,---,0.00,VWS V14.01,2013-03-15 14:39:00,
2013-03-15 10:44:00,58.9,34.0,30.29,NNW,342,8.0,11.1,39,0.00,,---,0.00,VWS V14.01,2013-03-15 14:44:00,
2013-03-15 10:49:00,59.0,34.1,30.29,North,4,7.0,10.9,39,0.00,,---,0.00,VWS V14.01,2013-03-15 14:49:00,
2013-03-15 10:54:00,58.7,33.0,30.29,ENE,60,4.5,6.9,38,0.00,,---,0.00,VWS V14.01,2013-03-15 14:54:00,
2013-03-15 10:59:00,58.7,30.7,30.29,North,4,5.7,10.1,34,0.00,,---,0.00,VWS V14.01,2013-03-15 14:59:00,
2013-03-15 11:04:00,59.5,31.4,30.29,North,354,7.5,8.9,34,0.00,,---,0.00,VWS V14.01,2013-03-15 15:04:00,
2013-03-15 11:09:00,59.5,29.6,30.28,NNE,27,7.5,10.1,32,0.00,,---,0.00,VWS V14.01,2013-03-15 15:09:00,
2013-03-15 11:14:00,60.0,28.7,30.28,NNW,329,9.9,11.9,30,0.00,,---,0.00,VWS V14.01,2013-03-15 15:14:00,
2013-03-15 11:19:00,60.0,29.7,30.28,North,350,10.4,11.6,32,0.00,,---,0.00,VWS V14.01,2013-03-15 15:19:00,
2013-03-15 11:24:00,60.9,30.5,30.28,North,359,6.6,6.8,32,0.00,,---,0.00,VWS V14.01,2013-03-15 15:24:00,
2013-03-15 11:29:00,61.6,31.1,30.28,NNW,338,3.5,8.4,32,0.00,,---,0.00,VWS V14.01,2013-03-15 15:29:00,
2013-03-15 11:34:00,61.5,31.3,30.28,NW,308,2.5,7.1,32,0.00,,---,0.00,VWS V14.01,2013-03-15 15:34:00,
2013-03-15 11:39:00,61.9,32.9,30.28,ENE,66,3.3,5.8,34,0.00,,---,0.00,VWS V14.01,2013-03-15 15:39:00,
2013-03-15 11:44:00,62.0,32.8,30.27,NNE,20,2.4,9.4,33,0.00,,---,0.00,VWS V14.01,2013-03-15 15:44:00,
2013-03-15 11:49:00,62.5,33.3,30.27,NNW,345,5.3,7.8,33,0.00,,---,0.00,VWS V14.01,2013-03-15 15:49:00,
2013-03-15 11:54:00,63.3,33.7,30.27,NNE,22,2.4,6.6,33,0.00,,---,0.00,VWS V14.01,2013-03-15 15:54:00,
2013-03-15 11:59:00,63.7,33.2,30.27,North,10,7.5,7.7,32,0.00,,---,0.00,VWS V14.01,2013-03-15 15:59:00,
2013-03-15 12:04:00,63.7,32.9,30.27,NE,46,2.2,3.0,32,0.00,,---,0.00,VWS V14.01,2013-03-15 16:04:00,
2013-03-15 12:09:00,63.3,32.4,30.27,NNE,21,3.9,6.6,31,0.00,,---,0.00,VWS V14.01,2013-03-15 16:09:00,
2013-03-15 12:14:00,64.2,32.9,30.26,ENE,59,1.3,3.0,31,0.00,,---,0.00,VWS V14.01,2013-03-15 16:14:00,
2013-03-15 12:19:00,63.8,32.0,30.26,NNW,346,5.0,6.0,30,0.00,,---,0.00,VWS V14.01,2013-03-15 16:19:00,
2013-03-15 12:24:00,65.1,33.0,30.26,NNE,20,0.0,0.0,30,0.00,,---,0.00,VWS V14.01,2013-03-15 16:24:00,
2013-03-15 12:29:00,65.4,33.8,30.26,East,98,4.2,4.2,31,0.00,,---,0.00,VWS V14.01,2013-03-15 16:29:00,
2013-03-15 12:34:00,66.1,34.3,30.25,North,10,5.8,6.3,31,0.00,,---,0.00,VWS V14.01,2013-03-15 16:34:00,
2013-03-15 12:39:00,66.9,34.3,30.25,ENE,58,1.4,3.9,30,0.00,,---,0.00,VWS V14.01,2013-03-15 16:39:00,
2013-03-15 12:44:00,66.4,34.6,30.25,NE,53,4.1,8.6,31,0.00,,---,0.00,VWS V14.01,2013-03-15 16:44:00,
2013-03-15 12:49:00,66.9,34.7,30.25,NNE,20,4.4,7.9,30,0.00,,---,0.00,VWS V14.01,2013-03-15 16:49:00,
2013-03-15 12:54:00,66.5,34.5,30.25,ENE,73,2.9,4.6,30,0.00,,---,0.00,VWS V14.01,2013-03-15 16:54:00,
2013-03-15 12:59:00,67.0,35.1,30.25,NNE,31,2.0,3.2,31,0.00,,---,0.00,VWS V14.01,2013-03-15 16:59:00,
2013-03-15 13:04:00,67.6,34.9,30.24,South,173,0.0,0.0,30,0.00,,---,0.00,VWS V14.01,2013-03-15 17:04:00,
2013-03-15 13:09:00,66.9,33.5,30.25,NE,44,2.4,2.4,29,0.00,,---,0.00,VWS V14.01,2013-03-15 17:09:00,
2013-03-15 13:15:00,66.6,32.5,30.24,NNE,30,1.7,8.9,28,0.00,,---,0.00,VWS V14.01,2013-03-15 17:15:00,
2013-03-15 13:20:00,67.9,34.1,30.24,ESE,103,0.0,1.6,28,0.00,,---,0.00,VWS V14.01,2013-03-15 17:20:00,
2013-03-15 13:25:00,66.9,33.9,30.24,NNE,18,7.6,8.7,29,0.00,,---,0.00,VWS V14.01,2013-03-15 17:25:00,
2013-03-15 13:30:00,67.9,34.4,30.23,ENE,72,2.9,8.5,29,0.00,,---,0.00,VWS V14.01,2013-03-15 17:30:00,
2013-03-15 13:35:00,68.2,34.3,30.23,East,87,0.0,9.1,28,0.00,,---,0.00,VWS V14.01,2013-03-15 17:35:00,
2013-03-15 13:40:00,67.4,32.2,30.23,NNW,340,4.3,7.5,27,0.00,,---,0.00,VWS V14.01,2013-03-15 17:40:00,
2013-03-15 13:45:00,68.6,33.2,30.23,NNE,15,4.5,4.5,27,0.00,,---,0.00,VWS V14.01,2013-03-15 17:45:00,
2013-03-15 13:50:00,68.5,33.0,30.22,NW,314,0.0,1.3,27,0.00,,---,0.00,VWS V14.01,2013-03-15 17:50:00,
2013-03-15 13:55:00,68.6,33.3,30.22,NE,46,2.1,3.5,27,0.00,,---,0.00,VWS V14.01,2013-03-15 17:55:00,
2013-03-15 14:00:00,69.1,32.8,30.22,NE,42,3.4,3.9,26,0.00,,---,0.00,VWS V14.01,2013-03-15 18:00:00,
2013-03-15 14:05:00,69.6,32.8,30.21,ENE,66,1.2,6.8,26,0.00,,---,0.00,VWS V14.01,2013-03-15 18:05:00,
2013-03-15 14:10:00,70.7,32.6,30.21,ENE,76,0.9,6.3,24,0.00,,---,0.00,VWS V14.01,2013-03-15 18:10:00,
2013-03-15 14:15:00,70.0,31.8,30.21,ENE,69,1.7,6.7,24,0.00,,---,0.00,VWS V14.01,2013-03-15 18:15:00,
2013-03-15 14:20:00,70.6,31.2,30.20,NE,53,2.5,4.8,23,0.00,,---,0.00,VWS V14.01,2013-03-15 18:20:00,
2013-03-15 14:25:00,71.0,31.3,30.20,North,359,3.5,9.0,23,0.00,,---,0.00,VWS V14.01,2013-03-15 18:25:00,
2013-03-15 14:30:00,71.1,31.0,30.20,NE,52,0.0,5.0,23,0.00,,---,0.00,VWS V14.01,2013-03-15 18:30:00,
2013-03-15 14:35:00,70.7,31.6,30.20,NE,35,5.9,6.4,24,0.00,,---,0.00,VWS V14.01,2013-03-15 18:35:00,
2013-03-15 14:40:00,70.5,31.9,30.20,NE,53,0.0,0.0,24,0.00,,---,0.00,VWS V14.01,2013-03-15 18:40:00,
2013-03-15 14:45:00,70.8,32.8,30.20,SE,132,2.7,5.0,24,0.00,,---,0.00,VWS V14.01,2013-03-15 18:45:00,
2013-03-15 14:50:00,71.1,31.9,30.19,East,96,0.0,0.0,23,0.00,,---,0.00,VWS V14.01,2013-03-15 18:50:00,
2013-03-15 14:55:00,71.5,30.9,30.19,SSW,210,3.3,4.0,22,0.00,,---,0.00,VWS V14.01,2013-03-15 18:55:00,
2013-03-15 15:00:00,71.6,32.5,30.19,ENE,69,0.8,2.4,24,0.00,,---,0.00,VWS V14.01,2013-03-15 19:00:00,
2013-03-15 15:05:00,70.9,31.1,30.19,NE,38,1.3,4.4,23,0.00,,---,0.00,VWS V14.01,2013-03-15 19:05:00,
2013-03-15 15:10:00,71.8,31.6,30.18,SE,145,0.7,2.3,23,0.00,,---,0.00,VWS V14.01,2013-03-15 19:10:00,
2013-03-15 15:15:00,72.3,31.2,30.18,North,0,0.9,5.2,22,0.00,,---,0.00,VWS V14.01,2013-03-15 19:15:00,
2013-03-15 15:20:00,71.8,31.4,30.18,NE,37,0.4,1.4,22,0.00,,---,0.00,VWS V14.01,2013-03-15 19:20:00,
2013-03-15 15:25:00,72.0,32.6,30.18,NE,35,5.1,5.1,23,0.00,,---,0.00,VWS V14.01,2013-03-15 19:25:00,
2013-03-15 15:29:00,72.2,32.5,30.18,East,87,0.4,0.9,23,0.00,,---,0.00,VWS V14.01,2013-03-15 19:29:00,
2013-03-15 15:34:00,72.9,33.2,30.18,NNE,31,0.0,0.4,23,0.00,,---,0.00,VWS V14.01,2013-03-15 19:34:00,
2013-03-15 15:40:00,73.0,32.4,30.18,NNE,27,1.4,6.0,22,0.00,,---,0.00,VWS V14.01,2013-03-15 19:40:00,
2013-03-15 15:44:00,71.7,31.6,30.17,NNW,329,4.3,4.3,23,0.00,,---,0.00,VWS V14.01,2013-03-15 19:44:00,
2013-03-15 15:49:00,72.4,33.0,30.17,East,101,4.5,5.4,23,0.00,,---,0.00,VWS V14.01,2013-03-15 19:49:00,
2013-03-15 15:54:00,73.2,32.9,30.17,East,98,0.0,0.0,23,0.00,,---,0.00,VWS V14.01,2013-03-15 19:54:00,
2013-03-15 15:59:00,73.9,33.1,30.17,East,94,3.2,5.3,22,0.00,,---,0.00,VWS V14.01,2013-03-15 19:59:00,
2013-03-15 16:04:00,73.9,33.5,30.16,SE,124,2.5,4.7,23,0.00,,---,0.00,VWS V14.01,2013-03-15 20:04:00,
2013-03-15 16:09:00,73.7,32.9,30.16,ENE,65,1.9,5.0,22,0.00,,---,0.00,VWS V14.01,2013-03-15 20:09:00,
2013-03-15 16:14:00,72.2,30.7,30.16,NNW,335,4.5,7.1,22,0.00,,---,0.00,VWS V14.01,2013-03-15 20:14:00,
2013-03-15 16:19:00,72.2,32.8,30.16,WNW,301,0.0,0.0,23,0.00,,---,0.00,VWS V14.01,2013-03-15 20:19:00,
2013-03-15 16:24:00,71.3,32.2,30.16,NE,37,0.0,3.5,24,0.00,,---,0.00,VWS V14.01,2013-03-15 20:24:00,
2013-03-15 16:29:00,72.2,32.9,30.15,NNE,20,6.6,6.7,24,0.00,,---,0.00,VWS V14.01,2013-03-15 20:29:00,
2013-03-15 16:34:00,72.5,32.2,30.15,NNE,25,1.7,6.2,23,0.00,,---,0.00,VWS V14.01,2013-03-15 20:34:00,
2013-03-15 16:39:00,71.8,30.9,30.15,NW,325,0.0,0.0,22,0.00,,---,0.00,VWS V14.01,2013-03-15 20:39:00,
2013-03-15 16:44:00,72.2,31.9,30.15,NNE,27,5.1,7.5,23,0.00,,---,0.00,VWS V14.01,2013-03-15 20:44:00,
2013-03-15 16:49:00,73.2,32.3,30.15,NNE,15,2.4,6.1,22,0.00,,---,0.00,VWS V14.01,2013-03-15 20:49:00,
2013-03-15 16:54:00,72.5,31.8,30.15,North,3,0.0,0.0,22,0.00,,---,0.00,VWS V14.01,2013-03-15 20:54:00,
2013-03-15 16:59:00,72.5,32.4,30.15,WNW,292,0.0,0.0,23,0.00,,---,0.00,VWS V14.01,2013-03-15 20:59:00,
2013-03-15 17:04:00,72.2,32.0,30.15,ESE,117,1.2,3.5,23,0.00,,---,0.00,VWS V14.01,2013-03-15 21:04:00,
2013-03-15 17:09:00,72.6,32.3,30.15,SE,124,0.9,3.0,23,0.00,,---,0.00,VWS V14.01,2013-03-15 21:09:00,
2013-03-15 17:14:00,72.9,31.9,30.15,WSW,245,1.3,2.7,22,0.00,,---,0.00,VWS V14.01,2013-03-15 21:14:00,
2013-03-15 17:20:00,73.1,32.6,30.15,SSE,158,1.4,3.4,22,0.00,,---,0.00,VWS V14.01,2013-03-15 21:20:00,
2013-03-15 17:25:00,72.8,31.7,30.15,SE,138,0.0,0.0,22,0.00,,---,0.00,VWS V14.01,2013-03-15 21:25:00,
2013-03-15 17:30:00,73.3,32.9,30.15,SE,135,2.9,3.3,23,0.00,,---,0.00,VWS V14.01,2013-03-15 21:30:00,
2013-03-15 17:35:00,72.9,31.6,30.15,East,91,0.0,0.0,22,0.00,,---,0.00,VWS V14.01,2013-03-15 21:35:00,
2013-03-15 17:40:00,73.3,32.3,30.15,South,180,2.1,3.7,22,0.00,,---,0.00,VWS V14.01,2013-03-15 21:40:00,
2013-03-15 17:45:00,73.7,33.2,30.15,SW,217,2.3,2.3,23,0.00,,---,0.00,VWS V14.01,2013-03-15 21:45:00,
2013-03-15 17:50:00,73.3,33.1,30.15,South,187,5.8,7.1,23,0.00,,---,0.00,VWS V14.01,2013-03-15 21:50:00,
2013-03-15 17:55:00,72.8,33.3,30.15,South,176,4.7,5.9,23,0.00,,---,0.00,VWS V14.01,2013-03-15 21:55:00,
2013-03-15 18:00:00,72.0,33.3,30.15,SE,129,2.7,3.5,24,0.00,,---,0.00,VWS V14.01,2013-03-15 22:00:00,
2013-03-15 18:05:00,72.5,33.6,30.15,South,181,1.1,3.6,24,0.00,,---,0.00,VWS V14.01,2013-03-15 22:05:00,
2013-03-15 18:10:00,72.3,33.3,30.14,South,183,0.9,2.5,24,0.00,,---,0.00,VWS V14.01,2013-03-15 22:10:00,
2013-03-15 18:15:00,72.4,33.4,30.14,SSE,148,4.6,4.9,24,0.00,,---,0.00,VWS V14.01,2013-03-15 22:15:00,
2013-03-15 18:20:00,72.6,33.5,30.14,South,179,0.0,1.2,24,0.00,,---,0.00,VWS V14.01,2013-03-15 22:20:00,
2013-03-15 18:25:00,71.7,32.3,30.15,SSE,152,1.7,4.3,23,0.00,,---,0.00,VWS V14.01,2013-03-15 22:25:00,
2013-03-15 18:30:00,71.8,32.9,30.15,SSE,160,2.2,4.5,24,0.00,,---,0.00,VWS V14.01,2013-03-15 22:30:00,
2013-03-15 18:35:00,71.3,32.7,30.15,SE,142,1.5,2.1,24,0.00,,---,0.00,VWS V14.01,2013-03-15 22:35:00,
2013-03-15 18:40:00,70.9,33.0,30.15,WSW,239,2.1,3.3,25,0.00,,---,0.00,VWS V14.01,2013-03-15 22:40:00,
2013-03-15 18:45:00,71.2,33.6,30.15,SSW,200,4.3,4.6,25,0.00,,---,0.00,VWS V14.01,2013-03-15 22:45:00,
2013-03-15 18:50:00,71.1,33.5,30.15,SW,225,3.6,3.6,25,0.00,,---,0.00,VWS V14.01,2013-03-15 22:50:00,
2013-03-15 18:55:00,70.0,33.1,30.15,South,186,3.4,6.5,26,0.00,,---,0.00,VWS V14.01,2013-03-15 22:55:00,
2013-03-15 19:00:00,70.4,33.3,30.15,SW,221,0.0,3.0,25,0.00,,---,0.00,VWS V14.01,2013-03-15 23:00:00,
2013-03-15 19:05:00,70.3,33.8,30.15,SSW,210,2.9,5.7,26,0.00,,---,0.00,VWS V14.01,2013-03-15 23:05:00,
2013-03-15 19:10:00,70.0,33.9,30.15,WSW,238,3.0,5.8,26,0.00,,---,0.00,VWS V14.01,2013-03-15 23:10:00,
2013-03-15 19:15:00,69.5,33.4,30.15,West,259,2.4,3.5,26,0.00,,---,0.00,VWS V14.01,2013-03-15 23:15:00,
2013-03-15 19:20:00,69.6,34.3,30.15,WSW,253,0.0,1.7,27,0.00,,---,0.00,VWS V14.01,2013-03-15 23:20:00,
2013-03-15 19:25:00,69.3,34.5,30.15,SW,229,1.6,2.9,28,0.00,,---,0.00,VWS V14.01,2013-03-15 23:25:00,
2013-03-15 19:30:00,68.2,34.2,30.15,SSE,159,0.0,0.7,28,0.00,,---,0.00,VWS V14.01,2013-03-15 23:30:00,
2013-03-15 19:35:00,68.4,34.8,30.15,SSE,159,0.0,0.0,29,0.00,,---,0.00,VWS V14.01,2013-03-15 23:35:00,
2013-03-15 19:40:00,67.1,34.3,30.15,SSE,159,0.0,0.0,30,0.00,,---,0.00,VWS V14.01,2013-03-15 23:40:00,
2013-03-15 19:45:00,67.0,34.8,30.15,SSE,159,0.0,0.0,30,0.00,,---,0.00,VWS V14.01,2013-03-15 23:45:00,
2013-03-15 19:50:00,67.1,35.5,30.15,SSE,159,0.0,0.0,31,0.00,,---,0.00,VWS V14.01,2013-03-15 23:50:00,
2013-03-15 19:55:00,66.1,35.5,30.15,SSE,159,0.0,0.0,32,0.00,,---,0.00,VWS V14.01,2013-03-15 23:55:00,
2013-03-15 20:00:00,65.7,35.8,30.15,SSE,159,0.0,0.0,33,0.00,,---,0.00,VWS V14.01,2013-03-16 00:00:00,
2013-03-15 20:05:00,65.7,36.6,30.16,SSE,159,0.0,0.0,34,0.00,,---,0.00,VWS V14.01,2013-03-16 00:05:00,
2013-03-15 20:10:00,64.6,36.4,30.15,SSE,159,0.0,0.0,35,0.00,,---,0.00,VWS V14.01,2013-03-16 00:10:00,
2013-03-15 20:15:00,64.4,37.0,30.16,SSE,159,0.0,0.0,36,0.00,,---,0.00,VWS V14.01,2013-03-16 00:15:00,
2013-03-15 20:20:00,64.2,37.3,30.16,SSE,159,0.0,0.0,37,0.00,,---,0.00,VWS V14.01,2013-03-16 00:20:00,
2013-03-15 20:25:00,63.3,37.5,30.16,SSE,159,0.0,0.0,38,0.00,,---,0.00,VWS V14.01,2013-03-16 00:25:00,
2013-03-15 20:30:00,62.8,37.4,30.16,SSE,159,0.0,0.0,39,0.00,,---,0.00,VWS V14.01,2013-03-16 00:30:00,
2013-03-15 20:35:00,62.3,37.6,30.16,SSE,159,0.0,0.0,40,0.00,,---,0.00,VWS V14.01,2013-03-16 00:35:00,
2013-03-15 20:40:00,62.4,38.8,30.16,SSE,159,0.0,0.0,42,0.00,,---,0.00,VWS V14.01,2013-03-16 00:40:00,
2013-03-15 20:44:00,61.7,39.3,30.17,SSE,159,0.0,0.0,44,0.00,,---,0.00,VWS V14.01,2013-03-16 00:44:00,
2013-03-15 20:49:00,61.6,40.3,30.17,SE,124,0.0,3.5,45,0.00,,---,0.00,VWS V14.01,2013-03-16 00:49:00,
2013-03-15 20:54:00,60.5,39.1,30.17,SE,135,0.5,4.1,45,0.00,,---,0.00,VWS V14.01,2013-03-16 00:54:00,
2013-03-15 20:59:00,61.0,39.3,30.18,SE,135,0.0,0.0,45,0.00,,---,0.00,VWS V14.01,2013-03-16 00:59:00,
2013-03-15 21:04:00,60.8,39.3,30.18,SE,135,2.8,3.3,45,0.00,,---,0.00,VWS V14.01,2013-03-16 01:04:00,
2013-03-15 21:09:00,60.3,39.0,30.18,ESE,122,1.3,6.3,45,0.00,,---,0.00,VWS V14.01,2013-03-16 01:09:00,
2013-03-15 21:14:00,59.8,38.8,30.18,SE,142,0.0,0.0,46,0.00,,---,0.00,VWS V14.01,2013-03-16 01:14:00,
2013-03-15 21:19:00,60.1,38.8,30.18,SE,136,0.0,0.0,45,0.00,,---,0.00,VWS V14.01,2013-03-16 01:19:00,
2013-03-15 21:24:00,60.3,39.2,30.18,SSE,156,1.4,3.7,46,0.00,,---,0.00,VWS V14.01,2013-03-16 01:24:00,
2013-03-15 21:29:00,60.0,39.0,30.19,SSW,207,3.9,5.0,46,0.00,,---,0.00,VWS V14.01,2013-03-16 01:29:00,
2013-03-15 21:34:00,60.1,39.0,30.20,West,263,5.7,6.5,46,0.00,,---,0.00,VWS V14.01,2013-03-16 01:34:00,
2013-03-15 21:39:00,61.4,39.7,30.20,SW,222,3.7,7.3,45,0.00,,---,0.00,VWS V14.01,2013-03-16 01:39:00,
2013-03-15 21:44:00,61.6,39.7,30.20,SW,229,0.0,0.0,44,0.00,,---,0.00,VWS V14.01,2013-03-16 01:44:00,
2013-03-15 21:50:00,61.4,39.7,30.20,WSW,256,0.0,0.0,45,0.00,,---,0.00,VWS V14.01,2013-03-16 01:50:00,
2013-03-15 21:54:00,61.3,40.0,30.20,West,270,1.4,5.7,45,0.00,,---,0.00,VWS V14.01,2013-03-16 01:54:00,
2013-03-15 21:59:00,61.3,40.1,30.20,West,270,0.0,0.0,46,0.00,,---,0.00,VWS V14.01,2013-03-16 01:59:00,
2013-03-15 22:04:00,61.6,40.6,30.20,West,270,0.0,0.0,46,0.00,,---,0.00,VWS V14.01,2013-03-16 02:04:00,
2013-03-15 22:09:00,61.9,41.1,30.20,West,270,0.0,0.0,46,0.00,,---,0.00,VWS V14.01,2013-03-16 02:09:00,
2013-03-15 22:14:00,60.7,40.2,30.20,West,270,0.0,0.0,47,0.00,,---,0.00,VWS V14.01,2013-03-16 02:14:00,
2013-03-15 22:19:00,61.2,40.9,30.20,West,270,0.0,0.0,47,0.00,,---,0.00,VWS V14.01,2013-03-16 02:19:00,
2013-03-15 22:24:00,60.9,40.9,30.20,West,270,0.0,0.0,48,0.00,,---,0.00,VWS V14.01,2013-03-16 02:24:00,
2013-03-15 22:29:00,60.7,41.0,30.20,West,270,0.0,0.0,48,0.00,,---,0.00,VWS V14.01,2013-03-16 02:29:00,
2013-03-15 22:34:00,60.3,41.1,30.20,West,270,0.0,0.0,49,0.00,,---,0.00,VWS V14.01,2013-03-16 02:34:00,
2013-03-15 22:39:00,58.9,40.0,30.20,West,270,0.0,0.0,50,0.00,,---,0.00,VWS V14.01,2013-03-16 02:39:00,
2013-03-15 22:44:00,59.5,41.1,30.20,West,270,0.0,0.0,50,0.00,,---,0.00,VWS V14.01,2013-03-16 02:44:00,
2013-03-15 22:49:00,59.0,41.2,30.20,West,270,0.0,0.0,52,0.00,,---,0.00,VWS V14.01,2013-03-16 02:49:00,
2013-03-15 22:54:00,58.8,41.3,30.20,West,270,0.0,0.0,52,0.00,,---,0.00,VWS V14.01,2013-03-16 02:54:00,
2013-03-15 22:59:00,57.8,41.0,30.21,West,270,0.0,0.0,53,0.00,,---,0.00,VWS V14.01,2013-03-16 02:59:00,
2013-03-15 23:04:00,57.6,41.2,30.20,West,270,0.0,0.0,54,0.00,,---,0.00,VWS V14.01,2013-03-16 03:04:00,
2013-03-15 23:09:00,57.2,41.2,30.20,West,270,0.0,0.0,55,0.00,,---,0.00,VWS V14.01,2013-03-16 03:09:00,
2013-03-15 23:14:00,56.6,41.2,30.20,West,270,0.0,0.0,56,0.00,,---,0.00,VWS V14.01,2013-03-16 03:14:00,
2013-03-15 23:19:00,56.5,41.5,30.20,West,270,0.0,0.0,57,0.00,,---,0.00,VWS V14.01,2013-03-16 03:19:00,
2013-03-15 23:24:00,56.5,41.9,30.20,West,270,0.0,0.0,58,0.00,,---,0.00,VWS V14.01,2013-03-16 03:24:00,
2013-03-15 23:29:00,55.5,41.2,30.20,West,270,0.0,0.0,59,0.00,,---,0.00,VWS V14.01,2013-03-16 03:29:00,
2013-03-15 23:34:00,55.8,41.7,30.20,West,270,0.0,0.0,59,0.00,,---,0.00,VWS V14.01,2013-03-16 03:34:00,
2013-03-15 23:39:00,55.8,41.9,30.20,West,270,0.0,0.0,59,0.00,,---,0.00,VWS V14.01,2013-03-16 03:39:00,
2013-03-15 23:44:00,54.6,41.0,30.20,West,270,0.0,0.0,60,0.00,,---,0.00,VWS V14.01,2013-03-16 03:44:00,
2013-03-15 23:49:00,55.6,42.0,30.20,West,270,0.0,0.0,60,0.00,,---,0.00,VWS V14.01,2013-03-16 03:49:00,
2013-03-15 23:54:00,55.2,41.8,30.20,West,270,0.0,0.0,60,0.00,,---,0.00,VWS V14.01,2013-03-16 03:54:00,